ONEWEB-0169 (48077 NORAD) Tracking and Keplerian Element Data

This shows tracking and keplerian element data for the satellite.

Feedback or suggestion? Click here.




ElementValue
Catalog48077
NameONEWEB-0169
Epoch Orbit174
Epoch Day170.58334491
Epoch Year2021
RAAN323.1016
Inclination87.7357
Eccentricity0.0009771
Argument of Perigee342.3913
Mean Anonmoly123.6119
Mean Motion13.87765378
Decay Rate1.6E-07
L11 48077U 21025AM 21170.58334491 .00000016 00000-0 00000-0 0 9991
L22 48077 87.7357 323.1016 0009771 342.3913 123.6119 13.87765378 1740

Live tracking and technical data element details for ONEWEB-0169 (NORAD 48077). ONEWEB-0169 can be tracked NOW for your location showing map with azimuth and elevation plus other details from your city location.

Track the satellite on the map from your city or location and see movement details for azimuth, elevation, latitude, longitude, range, height, and movement on the map or in text.







IsCatalogInMostPopularTable: catalog: 48077, numindb: 45
Update: records affected: 1



GetName: 48077 ONEWEB-0169

Hit Count: updated at: Mon, 21 Jun 2021 03:05:37 GMT